Location: G�rlitz
(51.1670°N, 15.0000°E)
Time: 20:25:11
(UTC+01:00)

Envisat - Pass Details

Date: 18 February 2026
Orbit: 761 x 763 km, 98.4° (Epoch: 11 March)

Event Time Altitude Azimuth Distance (km) Brightness Sun altitude
Rises 04:36:45 0° 4° (N) 3,238 6.4 -24.2°
Reaches altitude 10° 04:39:48 10° 345° (NNW) 2,307 5.4 -23.7°
Enters shadow 04:40:49 13° 335° (NNW) 2,082 5.1 -23.6°
